Location: Earls Croome
(52.0667°N, 2.2000°W)
Time: 21:13:54
(UTC+00:00)

Lacrosse 5 - Pass Details

Date: 17 November 2019
Orbit: 715 x 724 km, 57.0° (Epoch: 04 December)

Event Time Altitude Azimuth Distance (km) Brightness Sun altitude
Exits shadow 06:21:53 14° 276° (W) 1,965 3.5 -10.6°
Maximum altitude 06:26:10 51° 350° (N) 900 2.2 -10.0°
Drops below altitude 10° 06:31:07 10° 67° (ENE) 2,203 5.1 -9.3°
Sets 06:33:34 0° 73° (ENE) 3,123 6.1 -8.9°
